| time (UTC) | temp C | wind direction | speed KPH | gust KPH | rain 1hr cm | rain 24hr cm | rain mn cm | humidity % | barometer mb |
| 20260505180004 | 27 | 199 | 32.2 | 45.1 | 0.00 | 0.00 | 0.00 | 37 | 1008.3 |
| 20260505175004 | 27 | 198 | 24.1 | 37.0 | 0.00 | 0.00 | 0.00 | 40 | 1008.2 |
| 20260505174004 | 27 | 203 | 22.5 | 40.2 | 0.00 | 0.00 | 0.00 | 39 | 1008.3 |
| 20260505173004 | 27 | 206 | 24.1 | 41.8 | 0.00 | 0.00 | 0.00 | 41 | 1008.4 |
| 20260505172004 | 27 | 206 | 20.9 | 40.2 | 0.00 | 0.00 | 0.00 | 41 | 1008.6 |
| 20260505171004 | 27 | 207 | 19.3 | 37.0 | 0.00 | 0.00 | 0.00 | 41 | 1008.6 |
| 20260505170004 | 27 | 206 | 27.4 | 41.8 | 0.00 | 0.00 | 0.00 | 39 | 1008.7 |
| 20260505165004 | 27 | 219 | 24.1 | 43.5 | 0.00 | 0.00 | 0.00 | 40 | 1008.9 |
| 20260505164004 | 27 | 226 | 20.9 | 38.6 | 0.00 | 0.00 | 0.00 | 42 | 1009.1 |
| 20260505163004 | 26 | 213 | 22.5 | 40.2 | 0.00 | 0.00 | 0.00 | 41 | 1009.2 |
| 20260505162004 | 27 | 230 | 19.3 | 37.0 | 0.00 | 0.00 | 0.00 | 41 | 1009.3 |
| 20260505161005 | 26 | 230 | 17.7 | 35.4 | 0.00 | 0.00 | 0.00 | 43 | 1009.4 |
| 20260505153004 | 26 | 232 | 16.1 | 32.2 | 0.00 | 0.00 | 0.00 | 45 | 1009.4 |
| 20260505152004 | 25 | 217 | 16.1 | 33.8 | 0.00 | 0.00 | 0.00 | 46 | 1009.5 |
| 20260505151004 | 25 | 225 | 19.3 | 35.4 | 0.00 | 0.00 | 0.00 | 47 | 1009.5 |
| 20260505125004 | 18 | 203 | 11.3 | 19.3 | 0.00 | 0.00 | 0.00 | 65 | 1010.6 |
| 20260505124004 | 18 | 202 | 8.0 | 14.5 | 0.00 | 0.00 | 0.00 | 66 | 1010.7 |
| 20260505123004 | 17 | 199 | 9.7 | 16.1 | 0.00 | 0.00 | 0.00 | 66 | 1010.6 |
| 20260505122004 | 17 | 221 | 4.8 | 14.5 | 0.00 | 0.00 | 0.00 | 70 | 1010.6 |
| 20260505121004 | 16 | 238 | 3.2 | 8.0 | 0.00 | 0.00 | 0.00 | 72 | 1010.5 |
| 20260505120025 | 15 | 232 | 1.6 | 6.4 | 0.00 | 0.00 | 0.00 | 73 | 1010.3 |
| 20260505115004 | 15 | 265 | 1.6 | 6.4 | 0.00 | 0.00 | 0.00 | 73 | 1010.3 |
| 20260505114005 | 15 | 277 | 1.6 | 3.2 | 0.00 | 0.00 | 0.00 | 75 | 1010.3 |
| 20260505113025 | 14 | 277 | 0.0 | 3.2 | 0.00 | 0.00 | 0.00 | 78 | 1010.1 |
| 20260505112025 | 13 | 277 | 0.0 | 3.2 | 0.00 | 0.00 | 0.00 | 80 | 1010.1 |
| 20260505111004 | 12 | 277 | 0.0 | 4.8 | 0.00 | 0.00 | 0.00 | 82 | 1010.1 |
| 20260505102025 | 12 | 160 | 0.0 | 3.2 | 0.00 | 0.00 | 0.00 | 77 | 1009.6 |
| 20260505101004 | 12 | 172 | 3.2 | 9.7 | 0.00 | 0.00 | 0.00 | 76 | 1009.4 |
| 20260505100004 | 12 | 166 | 4.8 | 6.4 | 0.00 | 0.00 | 0.00 | 79 | 1009.4 |
| 20260505095004 | 12 | 162 | 4.8 | 8.0 | 0.00 | 0.00 | 0.00 | 76 | 1009.4 |
| 20260505094004 | 12 | 162 | 3.2 | 8.0 | 0.00 | 0.00 | 0.00 | 76 | 1009.5 |
| 20260505093004 | 13 | 0 | 0.0 | 0.0 | 0.00 | 0.00 | 0.00 | 75 | 1009.5 |
| 20260505092004 | 13 | 0 | 0.0 | 0.0 | 0.00 | 0.00 | 0.00 | 73 | 1009.4 |
| 20260505091025 | 13 | 162 | 1.6 | 8.0 | 0.00 | 0.00 | 0.00 | 72 | 1009.3 |
| 20260505090025 | 13 | 171 | 6.4 | 11.3 | 0.00 | 0.00 | 0.00 | 72 | 1009.2 |
| 20260505085004 | 13 | 192 | 3.2 | 4.8 | 0.00 | 0.00 | 0.00 | 71 | 1009.2 |
| 20260505084025 | 13 | 192 | 3.2 | 4.8 | 0.00 | 0.00 | 0.00 | 71 | 1009.2 |
| 20260505083004 | 14 | 193 | 3.2 | 6.4 | 0.00 | 0.00 | 0.00 | 71 | 1009.1 |
| 20260505082004 | 14 | 195 | 1.6 | 4.8 | 0.00 | 0.00 | 0.00 | 70 | 1009.1 |
| 20260505081025 | 14 | 195 | 3.2 | 4.8 | 0.00 | 0.00 | 0.00 | 69 | 1009.0 |
| 20260505080025 | 15 | 195 | 3.2 | 4.8 | 0.00 | 0.00 | 0.00 | 69 | 1009.0 |
| 20260505075004 | 15 | 195 | 3.2 | 6.4 | 0.00 | 0.00 | 0.00 | 68 | 1009.0 |
| 20260505074004 | 15 | 183 | 4.8 | 8.0 | 0.00 | 0.00 | 0.00 | 68 | 1008.8 |
| 20260505073004 | 15 | 183 | 3.2 | 6.4 | 0.00 | 0.00 | 0.00 | 68 | 1008.7 |
| 20260505072025 | 15 | 183 | 0.0 | 4.8 | 0.00 | 0.00 | 0.00 | 67 | 1008.8 |
| 20260505071004 | 15 | 183 | 3.2 | 8.0 | 0.00 | 0.00 | 0.00 | 66 | 1008.8 |
| 20260505070004 | 16 | 183 | 3.2 | 6.4 | 0.00 | 0.00 | 0.00 | 65 | 1008.8 |
| 20260505065004 | 16 | 183 | 4.8 | 8.0 | 0.00 | 0.00 | 0.00 | 65 | 1008.8 |
| 20260505064004 | 16 | 182 | 4.8 | 9.7 | 0.00 | 0.00 | 0.00 | 65 | 1008.9 |
| 20260505063005 | 16 | 170 | 1.6 | 6.4 | 0.00 | 0.00 | 0.00 | 65 | 1009.1 |
| 20260505062005 | 16 | 166 | 3.2 | 4.8 | 0.00 | 0.00 | 0.00 | 63 | 1009.1 |
| 20260505061004 | 16 | 165 | 3.2 | 8.0 | 0.00 | 0.00 | 0.00 | 61 | 1009.1 |
| 20260505060025 | 16 | 167 | 4.8 | 9.7 | 0.00 | 0.00 | 0.00 | 60 | 1009.1 |
| 20260505055004 | 16 | 180 | 3.2 | 8.0 | 0.00 | 0.00 | 0.00 | 61 | 1009.1 |
| 20260505054025 | 16 | 194 | 3.2 | 8.0 | 0.00 | 0.00 | 0.00 | 62 | 1009.1 |
| 20260505053004 | 16 | 216 | 1.6 | 6.4 | 0.00 | 0.00 | 0.00 | 64 | 1009.2 |
| 20260505052025 | 15 | 218 | 4.8 | 11.3 | 0.00 | 0.00 | 0.00 | 64 | 1009.2 |
| 20260505051025 | 15 | 211 | 6.4 | 11.3 | 0.00 | 0.00 | 0.00 | 64 | 1009.1 |
| 20260505041004 | 16 | 185 | 4.8 | 6.4 | 0.00 | 0.00 | 0.00 | 59 | 1008.9 |
| 20260505040004 | 16 | 187 | 6.4 | 9.7 | 0.00 | 0.00 | 0.00 | 59 | 1008.8 |
| 20260505035005 | 16 | 211 | 3.2 | 8.0 | 0.00 | 0.00 | 0.00 | 58 | 1008.8 |
| 20260505034004 | 16 | 212 | 3.2 | 8.0 | 0.00 | 0.00 | 0.00 | 57 | 1008.8 |
| 20260505033025 | 16 | 205 | 4.8 | 8.0 | 0.00 | 0.00 | 0.00 | 56 | 1008.8 |
| 20260505032004 | 17 | 222 | 3.2 | 8.0 | 0.00 | 0.00 | 0.00 | 54 | 1008.8 |
| 20260505031004 | 17 | 194 | 4.8 | 8.0 | 0.00 | 0.00 | 0.00 | 53 | 1008.8 |
| 20260505030004 | 18 | 185 | 9.7 | 22.5 | 0.00 | 0.00 | 0.00 | 52 | 1008.7 |
| 20260505025004 | 18 | 171 | 11.3 | 27.4 | 0.00 | 0.00 | 0.00 | 51 | 1008.5 |
| 20260505024004 | 18 | 163 | 14.5 | 29.0 | 0.00 | 0.00 | 0.00 | 51 | 1008.4 |
| 20260505023004 | 18 | 160 | 14.5 | 27.4 | 0.00 | 0.00 | 0.00 | 51 | 1008.4 |
| 20260505022004 | 18 | 160 | 14.5 | 27.4 | 0.00 | 0.00 | 0.00 | 50 | 1008.3 |
| 20260505021004 | 18 | 164 | 16.1 | 25.7 | 0.00 | 0.00 | 0.00 | 50 | 1008.5 |
| 20260505020004 | 18 | 164 | 14.5 | 27.4 | 0.00 | 0.00 | 0.00 | 50 | 1008.5 |
| 20260505015004 | 18 | 160 | 14.5 | 25.7 | 0.00 | 0.00 | 0.00 | 50 | 1008.4 |
| 20260505014004 | 18 | 164 | 12.9 | 25.7 | 0.00 | 0.00 | 0.00 | 49 | 1008.6 |
| 20260505013004 | 18 | 167 | 9.7 | 19.3 | 0.00 | 0.00 | 0.00 | 49 | 1008.7 |
| 20260505012025 | 18 | 162 | 9.7 | 20.9 | 0.00 | 0.00 | 0.00 | 49 | 1008.6 |
| 20260505011003 | 18 | 162 | 9.7 | 19.3 | 0.00 | 0.00 | 0.00 | 48 | 1008.5 |
| 20260505010004 | 19 | 162 | 12.9 | 25.7 | 0.00 | 0.00 | 0.00 | 47 | 1008.3 |
| 20260505005004 | 19 | 163 | 14.5 | 25.7 | 0.00 | 0.00 | 0.00 | 47 | 1008.2 |
| 20260505004004 | 20 | 161 | 14.5 | 32.2 | 0.00 | 0.00 | 0.00 | 46 | 1008.1 |
| 20260505003004 | 20 | 162 | 14.5 | 27.4 | 0.00 | 0.00 | 0.00 | 46 | 1008.1 |
| 20260505002004 | 20 | 158 | 12.9 | 27.4 | 0.00 | 0.00 | 0.00 | 45 | 1008.0 |
| 20260505001004 | 21 | 154 | 11.3 | 22.5 | 0.00 | 0.00 | 0.00 | 43 | 1008.0 |
| 20260505000004 | 21 | 177 | 9.7 | 20.9 | 0.00 | 0.00 | 0.00 | 41 | 1007.9 |
| 20260504235004 | 21 | 187 | 11.3 | 20.9 | 0.00 | 0.00 | 0.00 | 42 | 1007.7 |
| 20260504234025 | 21 | 193 | 14.5 | 27.4 | 0.00 | 0.00 | 0.00 | 41 | 1007.7 |
| 20260504233025 | 22 | 195 | 17.7 | 32.2 | 0.00 | 0.00 | 0.00 | 41 | 1007.6 |
| 20260504232003 | 22 | 195 | 17.7 | 30.6 | 0.00 | 0.00 | 0.00 | 41 | 1007.6 |
| 20260504231004 | 22 | 196 | 17.7 | 30.6 | 0.00 | 0.00 | 0.00 | 40 | 1007.6 |
| 20260504230004 | 22 | 198 | 17.7 | 29.0 | 0.00 | 0.00 | 0.00 | 40 | 1007.7 |
| 20260504225004 | 22 | 199 | 22.5 | 35.4 | 0.00 | 0.00 | 0.00 | 39 | 1007.6 |
| 20260504224025 | 22 | 195 | 22.5 | 37.0 | 0.00 | 0.00 | 0.00 | 39 | 1007.7 |
| 20260504223004 | 22 | 193 | 24.1 | 38.6 | 0.00 | 0.00 | 0.00 | 38 | 1007.7 |
| 20260504222004 | 23 | 192 | 24.1 | 37.0 | 0.00 | 0.00 | 0.00 | 38 | 1007.8 |
| 20260504221004 | 23 | 195 | 20.9 | 35.4 | 0.00 | 0.00 | 0.00 | 37 | 1007.7 |
| 20260504220004 | 23 | 203 | 22.5 | 37.0 | 0.00 | 0.00 | 0.00 | 38 | 1007.8 |
| 20260504215004 | 23 | 191 | 19.3 | 32.2 | 0.00 | 0.00 | 0.00 | 38 | 1007.8 |
| 20260504214003 | 23 | 200 | 20.9 | 33.8 | 0.00 | 0.00 | 0.00 | 37 | 1007.9 |
| 20260504213004 | 23 | 191 | 22.5 | 35.4 | 0.00 | 0.00 | 0.00 | 37 | 1007.8 |
| 20260504212004 | 23 | 197 | 19.3 | 30.6 | 0.00 | 0.00 | 0.00 | 37 | 1007.8 |
| 20260504211025 | 23 | 194 | 20.9 | 37.0 | 0.00 | 0.00 | 0.00 | 38 | 1007.9 |
| 20260504210004 | 23 | 201 | 22.5 | 38.6 | 0.00 | 0.00 | 0.00 | 37 | 1007.9 |
| 20260504205004 | 23 | 201 | 19.3 | 37.0 | 0.00 | 0.00 | 0.00 | 38 | 1007.9 |
| 20260504204004 | 23 | 201 | 20.9 | 37.0 | 0.00 | 0.00 | 0.00 | 37 | 1007.9 |
| 20260504203025 | 23 | 202 | 17.7 | 35.4 | 0.00 | 0.00 | 0.00 | 36 | 1008.0 |
| 20260504202003 | 23 | 197 | 22.5 | 40.2 | 0.00 | 0.00 | 0.00 | 36 | 1008.3 |
| 20260504201003 | 23 | 192 | 22.5 | 37.0 | 0.00 | 0.00 | 0.00 | 39 | 1008.3 |
| 20260504200024 | 23 | 204 | 19.3 | 33.8 | 0.00 | 0.00 | 0.00 | 38 | 1008.6 |
| 20260504195004 | 23 | 208 | 19.3 | 40.2 | 0.00 | 0.00 | 0.00 | 37 | 1008.7 |
| 20260504194003 | 23 | 204 | 20.9 | 35.4 | 0.00 | 0.00 | 0.00 | 38 | 1008.8 |
| 20260504193004 | 23 | 210 | 20.9 | 37.0 | 0.00 | 0.00 | 0.00 | 38 | 1009.0 |
| 20260504192005 | 23 | 201 | 20.9 | 37.0 | 0.00 | 0.00 | 0.00 | 37 | 1009.0 |
| 20260504191003 | 23 | 218 | 16.1 | 33.8 | 0.00 | 0.00 | 0.00 | 39 | 1009.1 |
| 20260504190005 | 23 | 210 | 17.7 | 33.8 | 0.00 | 0.00 | 0.00 | 38 | 1009.3 |
| 20260504185005 | 22 | 215 | 14.5 | 29.0 | 0.00 | 0.00 | 0.00 | 38 | 1009.6 |
| 20260504184004 | 22 | 199 | 17.7 | 30.6 | 0.00 | 0.00 | 0.00 | 37 | 1009.6 |
| 20260504183004 | 23 | 223 | 14.5 | 27.4 | 0.00 | 0.00 | 0.00 | 42 | 1009.7 |
| 20260504182004 | 22 | 212 | 14.5 | 29.0 | 0.00 | 0.00 | 0.00 | 41 | 1009.9 |
| 20260504181003 | 22 | 200 | 19.3 | 41.8 | 0.00 | 0.00 | 0.00 | 38 | 1010.0 |